Location: Newark
(55.7083°N, 13.1992°E)
Time: 22:27:56
(UTC+00:00)

Envisat - Pass Details

Date: 10 October 2022
Orbit: 763 x 765 km, 98.2° (Epoch: 08 December)

Event Time Altitude Azimuth Distance (km) Brightness Sun altitude
Rises 02:53:47 0° 19° (NNE) 3,249 6.8 -22.1°
Reaches altitude 10° 02:56:17 10° 28° (NNE) 2,318 6.1 -21.8°
Maximum altitude 03:01:00 36° 95° (E) 1,196 4.5 -21.1°
Drops below altitude 10° 03:05:40 10° 162° (SSE) 2,301 5.5 -20.5°
Sets 03:08:08 0° 171° (S) 3,222 6.1 -20.2°
